www.pogodaiklimat.ru

Погода и климат >> Архив погоды >> Узбекистан >> Учкудук


ПОГОДА в Учкудуке

  • Прогноз погоды в Учкудуке
  • Монитор погоды в Учкудуке

АРХИВ ПОГОДЫ в Учкудуке

Время (UTC), дата Ветер
(напр.,м/с)
 
Видим.   Явления Облачность Т
(С)
Тd
(С)
f
(%)
Тe
(С)
Тes
(С)
Комфортность P
(гПа)
Po
(гПа)
Тmin
(С)
Tmax
(С)
R
(мм)
R24
(мм)
S
(см)
21 10.06 СВ 2 н/о ясно +19.6 +7.0 44 +21 +21 комфорт 1018.7 993.5
00 11.06 С 1 4000 м 3/0
[Ac lent]
+17.2 +5.5 46 +18 +18 1018.7 993.3
03 11.06 штиль 0 4000 м ясно +23.0 +8.5 39 +24 +31 комфорт 1018.4 993.5
06 11.06 СВ 3 4000 м ясно +27.4 +10.6 35 +28 +42 жарко 1018.2 993.7 +17.1
09 11.06 СВ 2 4000 м ясно +29.7 +11.9 33 +30 +49 жарко 1017.1 992.8
12 11.06 СВ 3 4000 м ясно +31.4 +12.1 31 +32 +38 жарко 1015.2 991.0
15 11.06 СВ 2 4000 м ясно +29.7 +11.4 32 +30 +30 жарко 1015.1 990.8 +31.9
18 11.06 СВ 1 н/о ясно +24.4 +8.4 36 +25 +25 комфорт 1015.5 990.8 +31.9
21 11.06 В 4 н/о ясно +23.0 +7.8 38 +24 +24 комфорт 1015.0 990.2
00 12.06 В 1 4000 м ясно +19.4 +5.9 41 +21 +21 комфорт 1015.1 990.0
03 12.06 СВ 1 4000 м ясно +26.0 +10.3 37 +27 +33 жарко 1014.8 990.2
06 12.06 Ю 1 4000 м 1/1 1000 м
[Cu hum]
+29.6 +12.2 34 +30 +49 жарко 1014.3 990.0 +19.3
09 12.06 СЗ 1 4000 м 4/4 1000 м
[Cu hum]
+33.4 +14.3 32 +35 +48 душно 1012.5 988.5
12 12.06 Ю 1 4000 м 8/8 1000 м
[Cu hum]
+34.0 +13.5 29 +35 +36 очень
жарко
1011.1 987.2
15 12.06 СВ 1 4000 м 4/0
[Ac cuf]
+32.0 +12.8 31 +33 +33 жарко 1011.0 987.0 +34.5
18 12.06 З 2 н/о ясно +26.2 +10.5 37 +27 +27 жарко 1011.1 986.6 +34.5
21 12.06 СВ 2 н/о ясно +24.2 +9.5 39 +25 +25 комфорт 1010.9 986.2
00 13.06 СВ 1 4000 м ясно +21.8 +8.0 41 +23 +23 комфорт 1017.4 985.4
03 13.06 В 1 4000 м ясно +25.8 +10.2 37 +27 +33 жарко 1010.2 985.7
06 13.06 З 2 4000 м 1/1 1000 м
[Cu med, cong]
+34.0 +13.7 29 +35 +50 очень
жарко
1008.9 985.1 +21.7
09 13.06 СВ 2 4000 м 4/4 1000 м
[Cu med, cong]
+36.0 +14.7 28 +37 +48 душно 1007.7 984.1
12 13.06 З 1 4000 м 5/5 600 м
[Cu med, cong]
+37.2 +15.0 27 +38 +43 душно 1005.9 982.4
15 13.06 С 1 4000 м 3/0
[Ac lent]
+35.0 +14.3 29 +36 +36 очень
жарко
1005.4 981.8 +37.7
18 13.06 СВ 1 н/о 3/0
[Ac lent]
+29.6 +12.7 35 +31 +31 жарко 1006.3 982.2 +37.7
21 13.06 С 1 н/о 3/0
[Ac As]
+27.0 +11.2 37 +28 +28 жарко 1005.8 981.5
00 14.06 СВ 1 4000 м 3/0
[Ac lent]
+24.2 +9.5 39 +25 +25 комфорт 1005.6 981.1
03 14.06 С 1 4000 м 3/0
[Ac lent]
+30.2 +12.0 33 +31 +36 жарко 1005.4 981.4
06 14.06 З 2 4000 м 4/0
[Ci fib]
+36.0 +15.0 29 +38 +53 опасность
солнечного
удара
1006.2 982.6 +24.1
09 14.06 ЮЗ 4 4000 м 8/8 1000 м
[Cu med, cong]
+37.8 +15.4 27 +39 +42 очень
душно
1006.5 983.0
12 14.06 З 4 4000 м 9/0
[Ac As]
+38.2 +15.1 26 +40 +41 очень
душно
1005.4 982.0
15 14.06 С 3 4000 м 8/0
[Ac As]
+35.0 +14.3 29 +36 +36 очень
жарко
1005.5 981.9 +38.7
18 14.06 С 5 н/о 9/0
[Ac cast]
+30.1 +12.0 33 +31 +31 жарко 1005.6 981.5 +38.7
21 14.06 С 4 н/о 10/0
[Ac As]
+28.0 +11.3 35 +29 +29 жарко 1005.7 981.5
00 15.06 С 2 4000 м 8/0
[Ac As]
+25.4 +10.2 38 +26 +26 жарко 1005.5 981.1
03 15.06 С 3 4000 м 3/0
[Ac lent]
+26.0 +10.0 37 +27 +30 жарко 1006.3 981.9
06 15.06 СВ 3 4000 м 3/0
[Ci sp]
+30.0 +12.1 33 +31 +44 жарко 1008.3 984.2 +25.3
09 15.06 СЗ 4 4000 м 3/0
[Ci sp]
+31.2 +12.7 32 +32 +44 жарко 1008.5 984.5
12 15.06 СЗ 5 4000 м 1/0
[Ci ing]
+32.0 +12.5 30 +32 +36 жарко 1008.1 984.1
15 15.06 З 2 4000 м ясно +29.6 +11.5 33 +30 +30 жарко 1008.1 983.9 +32.5
18 15.06 СВ 2 н/о ясно +25.0 +9.0 36 +26 +26 жарко 1008.3 983.8 +32.5
21 15.06 З 3 н/о ясно +23.4 +7.8 37 +24 +24 комфорт 1008.1 983.5
00 16.06 З 3 4000 м ясно +21.8 +7.3 39 +23 +23 комфорт 1009.0 984.2
03 16.06 СВ 5 4000 м ясно +23.4 +8.1 38 +25 +27 комфорт 1010.8 986.1
06 16.06 С 5 4000 м ясно +26.2 +9.5 35 +27 +36 жарко 1011.9 987.4 +21.7
09 16.06 С 3 4000 м ясно +28.8 +11.0 33 +29 +45 жарко 1011.7 987.4
12 16.06 С 3 4000 м ясно +29.8 +11.5 32 +30 +36 жарко 1010.9 986.7
15 16.06 СВ 2 4000 м ясно +26.6 +9.9 35 +27 +27 жарко 1010.8 986.4 +30.3

 

Местоположение метеостанции Учкудук (Навоийская область, Узбекистан): широта 42.10 долгота 63.70 высота над уровнем моря 250 м.

В архиве по умолчанию представлена погода в Учкудуке за последнюю неделю. Архивные данные за месяц целиком и за предыдущие месяцы, начиная с января 2011 года, Вы можете получить, выбрав интересующий диапазон дат из раскрывающегося списка и нажав кнопку "Ввод!".


*Определитесь, кто Вы:
робот инопланетянин человек

Внимание! Время в таблицах - всемирное. Для получения местного времени необходимо прибавить поправку, которая равна 5 ч.

Смотрите также архив погоды в соседних городах и на ближайших метеорологических станциях:

Погода в Зарафшане (Навоийская область, Узбекистан) (75 км)
Погода в Тамдыбулаке (Навоийская область, Узбекистан) (87 км)
Погода в Бузаубае (Хорезмская область, Узбекистан) (109 км)
Погода в Акбайтале (Навоийская область, Узбекистан) (128 км)
Погода в Джангельды (Бухарская область, Узбекистан) (142 км)
Погода в Айякагитме (Узбекистан) (171 км)
Погода в Машикудуке (Навоийская область, Узбекистан) (176 км)
Погода в Тюя-Муюне (Лебапский велаят, Туркменистан) (215 км)
Погода в Дарганате (Лебапский велаят, Туркменистан) (217 км)
Погода в Ширик-Рабате (Кызылординская область, Казахстан) (229 км)

Пояснения к столбцам:

Ветер - указаны скорость ветра в м/с - средняя за 10 мин, порывы в срок и между сроками (в фигурных скобках) и направление, откуда дует ветер: С - северный, СВ - северо-восточный, В - восточный, ЮВ - юго-восточный, Ю - южный, ЮЗ - юго-западный, З - западный, СЗ - северо-западный.
Видимость - горизонтальная дальность видимости в метрах или километрах. При видимости от 1 до 10 км при отсутствии осадков обычно наблюдается дымка, при ухудшении видимости до 1 км и менее - туман. В сухую погоду видимость может ухудшаться дымом, пылью или мглою.
Явления - указаны атмосферные явления, наблюдавшиеся в срок или в последний час перед сроком; фигурными скобками обозначены явления, наблюдавшиеся между сроками (за 1-3 часа до срока); квадратными скобками обозначены град или гололедные отложения с указанием их диаметра в мм.
Облачность - указаны через наклонную черту общая и нижняя облачность в баллах и высота нижней границы облаков в метрах; квадратными скобками обозначены формы облаков: Ci - перистые, Cs - перисто-слоистые, Cc - перисто-кучевые, Ac - высококучевые, As - высокослоистые, Sc - слоисто-кучевые, Ns - слоисто-дождевые, Cu - кучевые, Cb - кучево-дождевые. Подробнее классификацию облаков см. в Атласе облаков (PDF).
T - Температура воздуха - температура, измеренная на высоте 2 м над землей.
Td - Температура точки росы - температура, при понижении до которой содержащийся в воздухе водяной пар достигнет насыщения.
f - Относительная влажность воздуха - влажноcть воздуха, измеренная на высоте 2 м над землей.
Te - Эффективная температура - температура, которую ощущает одетый по сезону человек в тени. Характеристика душности погоды. При расчете учитывается влияние влажности воздуха и скорости ветра на теплоощущения человека.
Tes - Эффективная температура на солнце - температура, которую ощущает человек, с поправкой на солнечный нагрев. Характеристика знойности погоды. Зависит от высоты солнца над горизонтом, облачности и скорости ветра. Ночью, в пасмурную погоду, а также при ветре 12 м/с и более поправка равна нулю.
P - Атмосферное давление - приведенное к уровню моря атмосферное давление.
Po - Атмосферное давление - измеренное на уровне метеостанции атмосферное давление.
Tmin - Минимальная температура - минимум температуры воздуха на высоте 2 м над землей.
Tmax - Максимальная температура - максимум температуры воздуха на высоте 2 м над землей.
R - Количество осадков - Количество выпавших осадков за период времени, мм. При наведении курсора мыши на число - период времени, за который выпало указанное количество осадков.
R24 - Количество осадков - Количество выпавших осадков за 24 часа, мм.
S - Снежный покров - Высота снежного покрова, см. При наведении курсора мыши на число - состояние снежного покрова и степень покрытия местности в баллах.